Regional Weather Roundup
Issued by NWS

Home | Current Version | Previous Version | Graphics & Text | Print | Product List | Glossary On
Versions: 1 2 3 4 5 6 7 8 9 10 11 12 13 14 15 16 17 18 19 20 21 22 23 24 25 26 27 28 29 30 31 32 33 34 35 36 37 38 39 40 41 42 43 44 45 46 47 48 49 50
000
ASUS43 KFSD 030910
RWRSD

WEATHER ROUNDUP FOR SOUTH DAKOTA
NATIONAL WEATHER SERVICE SIOUX FALLS SD
400 AM CDT WED JUN 03 2015

NOTE: "FAIR" INDICATES FEW OR NO CLOUDS BELOW 12,000 FEET WITH NO
SIGNIFICANT WEATHER AND/OR OBSTRUCTIONS TO VISIBILITY.


SDZ001>005-009-010-012>017-031000-
NORTHWEST AND NORTH CENTRAL SOUTH DAKOTA

CITY           SKY/WX    TMP DP  RH WIND       PRES   REMARKS
BUFFALO          N/A     54  50  86 NW20      29.87F
FAITH            N/A     56  51  84 NW15      29.88R
MOBRIDGE       CLOUDY    59  56  89 NW9       29.78F
$$

SDZ012>016-024>037-041>051-057-063-072>074-031000-
SOUTHWEST AND SOUTH CENTRAL SOUTH DAKOTA

CITY           SKY/WX    TMP DP  RH WIND       PRES   REMARKS
RAPID CTY ARPT PTCLDY    54  50  86 NW9       29.90R
PIERRE         CLOUDY    64  58  80 NW7       29.78F
CUSTER         PTCLDY    47 N/A N/A W3        30.02R
ELLSWORTH AFB  PTCLDY    54  51  89 N17G23    29.93R
PHILIP         PTCLDY    58 N/A N/A NW6       29.84R
PINE RIDGE     PTCLDY    52  49  89 S5        29.93R
SPEARFISH      CLOUDY    54  50  87 W10       30.00R
WINNER         FAIR      64  55  72 N18G29    29.83F
$$

SDZ004>011-016>023-039-040-031000-
NORTHEAST SOUTH DAKOTA

CITY           SKY/WX    TMP DP  RH WIND       PRES   REMARKS
ABERDEEN       CLOUDY    69  63  81 NW10      29.76R
WATERTOWN      CLOUDY    66  61  84 S12       29.77S
BROOKINGS      CLOUDY    64  59  82 S14G20    29.81S
SISSETON         N/A     70  63  78 W16       29.71R
$$

SDZ017-020-022-023-036>040-048>070-031000-
SOUTHEAST SOUTH DAKOTA

CITY           SKY/WX    TMP DP  RH WIND       PRES   REMARKS
SIOUX FALLS    CLOUDY    64  59  83 S12       29.81F
HURON          LGT RAIN  70  61  73 W28G36    29.74F
CHAMBERLAIN    CLOUDY    66  56  71 N8        29.79F
MITCHELL       LGT RAIN  67  62  84 CALM      29.80R
YANKTON        CLOUDY    64  63  94 CALM      29.80F
$$

ABBREVIATIONS USED IN REMARKS
   TC - TEMPERATURE IN CELSIUS
  WCI - WIND CHILL INDEX
   HX - HEAT INDEX
  VSB - VISIBILITY




USA.gov is the U.S. government's official web portal to all federal, state and local government web resources and services.